Location: Équennes
(49.7375°N, 1.9622°E)
Time: 01:38:34
(UTC+00:00)

Cosmos 2278 - Pass Details

Date: 28 January 2023
Orbit: 838 x 853 km, 71.1° (Epoch: 30 March)

Event Time Altitude Azimuth Distance (km) Brightness Sun altitude
Rises 19:23:38 0° 221° (SW) 3,388 7.4 -26.3°
Reaches altitude 10° 19:26:07 10° 226° (SW) 2,459 6.6 -26.7°
Maximum altitude 19:31:40 56° 304° (NW) 1,006 4.2 -27.6°
Enters shadow 19:34:04 33° 7° (N) 1,407 4.8 -28.0°
